N5JXS Weather Reports


time (UTC)temp
C
wind
direction
speed
KPH
gust
KPH
rain 1hr
cm
rain 24hr
cm
rain mn
cm
humidity
%
barometer
mb
20260507235849 16 5 4.8 4.8 0.00 0.13 0.13 27 1017.9
20260507235346 16 42 4.8 4.8 0.00 0.13 0.13 27 1017.9
20260507234843 16 83 8.0 12.9 0.00 0.13 0.13 26 1018.0
20260507234340 15 36 3.2 3.2 0.00 0.13 0.13 27 1018.0
20260507233836 15 62 1.6 1.6 0.00 0.13 0.13 28 1018.0
20260507233334 16 22 3.2 3.2 0.00 0.13 0.13 28 1018.1
20260507232832 15 2 4.8 4.8 0.00 0.13 0.13 28 1018.2
20260507232328 15 30 3.2 3.2 0.00 0.13 0.13 29 1018.0
20260507231826 15 19 4.8 4.8 0.00 0.13 0.13 28 1018.0
20260507231322 15 29 1.6 3.2 0.00 0.13 0.13 28 1018.0
20260507230818 16 19 1.6 4.8 0.00 0.13 0.13 27 1018.2
20260507230316 15 58 3.2 3.2 0.00 0.13 0.13 28 1018.1
20260507225816 16 25 4.8 8.0 0.00 0.13 0.13 27 1018.2
20260507225312 15 345 1.6 3.2 0.00 0.13 0.13 27 1018.1
20260507224808 15 332 9.7 12.9 0.00 0.13 0.13 28 1018.0
20260507224305 15 8 6.4 9.7 0.00 0.13 0.13 27 1018.4
20260507223801 15 23 8.0 9.7 0.00 0.13 0.13 26 1018.2
20260507223257 15 28 11.3 12.9 0.00 0.13 0.13 27 1018.0
20260507222754 15 31 3.2 4.8 0.00 0.13 0.13 28 1018.2
20260507222250 15 19 6.4 9.7 0.00 0.13 0.13 27 1018.2
20260507221748 16 11 8.0 9.7 0.00 0.13 0.13 26 1018.4
20260507221244 16 29 11.3 12.9 0.00 0.13 0.13 25 1018.4
20260507220740 15 31 6.4 9.7 0.00 0.13 0.13 27 1018.2
20260507220239 15 301 8.0 9.7 0.00 0.13 0.13 26 1018.4
20260507215735 16 1 3.2 3.2 0.00 0.13 0.13 26 1018.4
20260507215233 17 40 6.4 8.0 0.00 0.13 0.13 25 1018.6
20260507214729 17 68 6.4 9.7 0.00 0.13 0.13 25 1018.5
20260507214227 17 115 4.8 8.0 0.00 0.13 0.13 25 1018.6
20260507213722 17 11 12.9 14.5 0.00 0.13 0.13 24 1018.4
20260507213219 16 43 12.9 16.1 0.00 0.13 0.13 24 1018.9
20260507212715 17 4 9.7 12.9 0.00 0.13 0.13 26 1018.7
20260507212212 16 117 8.0 9.7 0.00 0.13 0.13 27 1018.9
20260507211709 16 56 3.2 4.8 0.00 0.13 0.13 28 1018.9
20260507211204 16 155 3.2 4.8 0.00 0.13 0.13 30 1019.1
20260507210702 16 12 4.8 4.8 0.00 0.13 0.13 30 1018.9
20260507210159 16 51 8.0 11.3 0.00 0.13 0.13 29 1019.0
20260507205655 16 41 1.6 1.6 0.00 0.13 0.13 29 1019.4
20260507205152 16 23 3.2 3.2 0.00 0.13 0.13 29 1019.4
20260507204648 16 352 8.0 11.3 0.00 0.13 0.13 30 1019.2
20260507204146 15 346 6.4 8.0 0.00 0.13 0.13 29 1019.5
20260507203644 15 44 3.2 4.8 0.00 0.13 0.13 30 1019.6
20260507203141 15 22 6.4 11.3 0.00 0.13 0.13 30 1019.5
20260507202636 16 24 1.6 3.2 0.00 0.13 0.13 30 1019.7
20260507202133 16 7 1.6 1.6 0.00 0.13 0.13 31 1019.9
20260507201628 16 42 6.4 9.7 0.00 0.13 0.13 33 1019.9
20260507201125 16 300 6.4 8.0 0.00 0.13 0.13 31 1019.9
20260507200621 15 14 6.4 9.7 0.00 0.13 0.13 30 1019.7
20260507200117 15 50 4.8 9.7 0.00 0.13 0.13 33 1019.7
20260507195615 15 32 1.6 3.2 0.00 0.13 0.13 34 1019.9
20260507195112 15 26 3.2 4.8 0.00 0.13 0.13 31 1020.4
20260507194608 15 48 3.2 4.8 0.00 0.13 0.13 32 1020.1
20260507194103 15 21 3.2 4.8 0.00 0.13 0.13 32 1020.2
20260507193601 15 18 3.2 3.2 0.00 0.13 0.13 31 1020.1
20260507193058 15 76 6.4 9.7 0.00 0.13 0.13 32 1020.1
20260507192554 15 76 3.2 3.2 0.00 0.13 0.13 33 1020.4
20260507192051 14 47 1.6 3.2 0.00 0.13 0.13 34 1020.2
20260507191546 14 53 1.6 3.2 0.00 0.13 0.13 34 1020.4
20260507191044 13 100 4.8 4.8 0.00 0.13 0.13 33 1020.5
20260507190541 14 335 4.8 8.0 0.00 0.13 0.13 35 1020.5
20260507190040 14 41 1.6 1.6 0.00 0.13 0.13 32 1020.6
20260507185538 15 5 3.2 3.2 0.00 0.13 0.13 30 1021.0
20260507185034 15 60 4.8 4.8 0.00 0.13 0.13 30 1020.9
20260507184532 14 21 3.2 3.2 0.00 0.13 0.13 30 1021.0
20260507184030 14 49 1.6 1.6 0.00 0.13 0.13 31 1020.7
20260507183525 14 25 3.2 3.2 0.00 0.13 0.13 29 1020.7
20260507183023 14 49 4.8 4.8 0.00 0.13 0.13 30 1020.9
20260507182519 13 70 3.2 4.8 0.00 0.13 0.13 29 1020.7
20260507182015 13 19 0.0 1.6 0.00 0.13 0.13 29 1020.7
20260507181512 13 320 3.2 3.2 0.00 0.13 0.13 28 1021.0
20260507181008 13 46 3.2 3.2 0.00 0.13 0.13 28 1020.7
20260507180505 13 345 0.0 1.6 0.00 0.13 0.13 31 1020.5
20260507180001 13 308 0.0 1.6 0.00 0.13 0.13 31 1020.7
20260507175458 13 63 3.2 4.8 0.00 0.13 0.13 30 1020.6
20260507174955 13 24 1.6 1.6 0.00 0.13 0.13 33 1020.9
20260507174452 13 38 3.2 3.2 0.00 0.13 0.13 32 1020.7
20260507173950 13 11 1.6 1.6 0.00 0.13 0.13 30 1021.0
20260507173447 13 37 1.6 1.6 0.00 0.13 0.13 32 1021.2
20260507172944 12 49 1.6 3.2 0.00 0.13 0.13 30 1021.6
20260507172440 12 22 4.8 4.8 0.00 0.13 0.13 34 1021.6
20260507171937 11 139 4.8 4.8 0.00 0.13 0.13 33 1021.4
20260507171432 11 337 1.6 3.2 0.00 0.13 0.13 37 1021.5
20260507170930 11 17 3.2 3.2 0.00 0.13 0.13 39 1021.2
20260507170426 11 54 1.6 3.2 0.00 0.13 0.13 38 1021.7
20260507165923 10 13 4.8 4.8 0.18 0.13 0.13 41 1021.5
20260507165419 10 38 4.8 4.8 0.18 0.13 0.13 39 1021.6
20260507164914 11 326 1.6 1.6 0.00 0.10 0.10 35 1021.4
20260507164412 10 38 4.8 4.8 0.18 0.10 0.10 38 1021.5
20260507163909 10 50 4.8 4.8 0.18 0.10 0.10 37 1021.6
20260507163407 10 10 3.2 3.2 0.00 0.08 0.08 34 1021.7
20260507162903 11 15 3.2 3.2 0.13 0.08 0.08 37 1021.7
20260507162358 11 29 0.0 1.6 0.43 0.08 0.08 36 1021.6
20260507161856 10 2 4.8 4.8 0.30 0.05 0.05 37 1021.7
20260507161352 10 10 6.4 8.0 0.30 0.05 0.05 36 1021.7
20260507160849 10 13 3.2 4.8 0.00 0.00 0.00 35 1021.7
20260507160344 10 7 4.8 8.0 0.00 0.00 0.00 35 1021.9
20260507155841 10 26 0.0 1.6 0.00 0.00 0.00 37 1021.7
20260507155336 10 34 1.6 1.6 0.00 0.00 0.00 39 1021.7
20260507154834 10 51 1.6 3.2 0.00 0.00 0.00 42 1022.0
20260507154331 9 6 3.2 3.2 0.00 0.00 0.00 41 1022.1
20260507153828 9 19 1.6 3.2 0.00 0.00 0.00 41 1021.9
20260507153324 8 60 1.6 3.2 0.00 0.00 0.00 43 1021.9
20260507152821 8 32 3.2 3.2 0.00 0.00 0.00 43 1021.9
20260507152317 8 330 4.8 4.8 0.00 0.00 0.00 44 1021.9
20260507151813 8 21 3.2 3.2 0.00 0.00 0.00 45 1022.0
20260507151309 8 306 3.2 3.2 0.00 0.00 0.00 47 1022.0
20260507150807 7 48 1.6 1.6 0.00 0.00 0.00 51 1022.0
20260507150303 7 30 3.2 4.8 0.00 0.00 0.00 48 1022.1
20260507145759 7 16 3.2 4.8 0.00 0.00 0.00 50 1021.9
20260507145256 6 22 1.6 1.6 0.00 0.00 0.00 51 1022.0
20260507144753 6 26 3.2 4.8 0.00 0.00 0.00 51 1021.9
20260507144250 5 37 3.2 3.2 0.00 0.00 0.00 53 1022.1
20260507143747 5 32 3.2 4.8 0.00 0.00 0.00 55 1022.2
20260507143244 5 19 3.2 3.2 0.00 0.00 0.00 53 1022.0
20260507142740 5 2 1.6 3.2 0.00 0.00 0.00 54 1022.1
20260507142237 5 13 1.6 3.2 0.00 0.00 0.00 55 1021.9
20260507141733 5 19 1.6 3.2 0.00 0.00 0.00 54 1021.9
20260507141230 4 9 1.6 3.2 0.00 0.00 0.00 55 1021.9
20260507140726 4 19 4.8 4.8 0.00 0.00 0.00 55 1022.0
20260507140224 3 14 4.8 4.8 0.00 0.00 0.00 57 1022.0
20260507135721 3 353 4.8 4.8 0.00 0.00 0.00 57 1022.2
20260507135218 3 30 0.0 1.6 0.00 0.00 0.00 60 1022.0
20260507134714 3 30 0.0 1.6 0.00 0.00 0.00 57 1022.0
20260507134211 2 28 0.0 1.6 0.00 0.00 0.00 59 1021.7
20260507133707 2 46 1.6 3.2 0.00 0.00 0.00 57 1021.7
20260507133204 2 19 4.8 9.7 0.00 0.00 0.00 56 1021.9
20260507132701 1 22 6.4 9.7 0.00 0.00 0.00 62 1021.7
20260507132157 2 46 0.0 0.0 0.00 0.00 0.00 62 1021.5
20260507131654 1 132 3.2 3.2 0.00 0.00 0.00 61 1021.6
20260507131152 1 96 1.6 3.2 0.00 0.00 0.00 59 1021.6
20260507130648 1 152 3.2 3.2 0.00 0.00 0.00 61 1021.5
20260507130146 1 121 1.6 1.6 0.00 0.00 0.00 63 1021.4
20260507125645 1 169 3.2 3.2 0.00 0.00 0.00 64 1021.4
20260507125142 0 183 3.2 3.2 0.00 0.00 0.00 65 1021.5
20260507124638 0 186 1.6 1.6 0.00 0.00 0.00 65 1021.2
20260507124136 0 192 1.6 1.6 0.00 0.00 0.00 66 1021.2
20260507123634 0 177 1.6 1.6 0.00 0.00 0.00 66 1021.2
20260507123131 0 238 1.6 1.6 0.00 0.00 0.00 64 1021.2
20260507122626 0 10 1.6 3.2 0.00 0.00 0.00 63 1021.0
20260507122122 0 219 1.6 1.6 0.00 0.00 0.00 66 1021.1
20260507121618 0 169 1.6 1.6 0.00 0.00 0.00 66 1021.2
20260507121114 0 158 1.6 1.6 0.00 0.00 0.00 64 1021.0
20260507120610 0 200 3.2 3.2 0.00 0.00 0.00 65 1021.0
20260507120107 0 313 0.0 0.0 0.00 0.00 0.00 61 1021.0
20260507115603 0 147 1.6 3.2 0.00 0.00 0.00 65 1021.1
20260507115059 0 181 3.2 3.2 0.00 0.00 0.00 67 1021.2
20260507114555 0 189 0.0 1.6 0.00 0.00 0.00 67 1021.1
20260507114053 0 198 1.6 1.6 0.00 0.00 0.00 68 1021.0
20260507113549 0 38 1.6 3.2 0.00 0.00 0.00 67 1021.2
20260507113047 0 184 0.0 0.0 0.00 0.00 0.00 68 1021.2
20260507112545 0 177 1.6 1.6 0.00 0.00 0.00 65 1021.2
20260507112041 0 112 1.6 1.6 0.00 0.00 0.00 63 1021.0
20260507111538 0 121 1.6 3.2 0.00 0.00 0.00 64 1021.0
20260507111035 0 65 0.0 0.0 0.00 0.00 0.00 63 1021.0
20260507110531 0 148 1.6 1.6 0.00 0.00 0.00 65 1021.0
20260507110028 0 202 0.0 1.6 0.00 0.00 0.00 65 1020.9
20260507105525 0 168 3.2 3.2 0.00 0.00 0.00 68 1020.9
20260507105021 0 173 1.6 1.6 0.00 0.00 0.00 66 1021.1
20260507104519 0 127 1.6 1.6 0.00 0.00 0.00 64 1021.1
20260507104015 0 151 3.2 3.2 0.00 0.00 0.00 63 1021.0
20260507103511 0 148 1.6 1.6 0.00 0.00 0.00 64 1021.1
20260507103007 0 175 1.6 1.6 0.00 0.00 0.00 65 1021.0
20260507102504 0 169 1.6 3.2 0.00 0.00 0.00 62 1021.1
20260507102000 0 82 1.6 3.2 0.00 0.00 0.00 65 1021.4
20260507101456 -1 148 1.6 3.2 0.00 0.00 0.00 69 1021.4
20260507100953 -1 133 3.2 3.2 0.00 0.00 0.00 75 1021.6
20260507100450 -1 155 1.6 1.6 0.00 0.00 0.00 76 1021.2
20260507095948 -1 164 1.6 1.6 0.00 0.00 0.00 76 1021.2
20260507095445 -1 164 0.0 0.0 0.00 0.00 0.00 76 1021.2
20260507094942 -1 141 3.2 3.2 0.00 0.00 0.00 79 1021.1
20260507094438 -1 144 1.6 1.6 0.00 0.00 0.00 78 1021.1
20260507093935 -1 165 3.2 3.2 0.00 0.00 0.00 78 1021.2
20260507093433 -1 148 1.6 3.2 0.00 0.00 0.00 81 1021.1
20260507092931 -1 159 1.6 3.2 0.00 0.00 0.00 80 1021.1
20260507092427 -1 167 1.6 1.6 0.00 0.00 0.00 79 1021.1
20260507091924 -1 180 3.2 3.2 0.00 0.00 0.00 78 1021.2
20260507091420 -1 171 3.2 3.2 0.00 0.00 0.00 78 1021.4
20260507090916 -2 169 1.6 1.6 0.00 0.00 0.00 80 1021.4
20260507090413 -1 159 1.6 1.6 0.00 0.00 0.00 80 1021.5
20260507085909 -2 96 1.6 1.6 0.00 0.00 0.00 77 1021.4
20260507085406 -2 156 1.6 1.6 0.00 0.00 0.00 81 1021.5
20260507084904 -2 161 3.2 3.2 0.00 0.00 0.00 83 1021.4
20260507084400 -2 153 0.0 1.6 0.00 0.00 0.00 82 1021.2
20260507083858 -1 86 1.6 1.6 0.00 0.00 0.00 79 1021.4
20260507083353 -1 150 1.6 3.2 0.00 0.00 0.00 78 1021.4
20260507082850 -2 168 0.0 1.6 0.00 0.00 0.00 80 1021.4
20260507082346 -2 172 1.6 1.6 0.00 0.00 0.00 81 1021.7
20260507081843 -2 179 1.6 1.6 0.00 0.00 0.00 84 1021.6
20260507081339 -2 157 1.6 1.6 0.00 0.00 0.00 86 1021.5
20260507080836 -2 164 1.6 1.6 0.00 0.00 0.00 88 1021.7
20260507080332 -2 123 1.6 1.6 0.00 0.00 0.00 91 1021.7
20260507075828 -3 150 0.0 0.0 0.00 0.00 0.00 92 1021.6
20260507075324 -3 166 1.6 1.6 0.00 0.00 0.00 92 1021.6
20260507074820 -3 172 0.0 0.0 0.00 0.00 0.00 92 1021.7
20260507074318 -2 156 3.2 3.2 0.00 0.00 0.00 93 1021.6
20260507073815 -2 127 1.6 1.6 0.00 0.00 0.00 93 1021.6
20260507073312 -2 156 0.0 0.0 0.00 0.00 0.00 94 1021.6
20260507072809 -2 183 0.0 0.0 0.00 0.00 0.00 95 1021.7
20260507072308 -3 176 3.2 3.2 0.00 0.00 0.00 96 1021.7
20260507071804 -3 153 1.6 1.6 0.00 0.00 0.00 96 1022.0
20260507071300 -3 167 0.0 1.6 0.00 0.00 0.00 96 1021.9
20260507070756 -3 160 1.6 1.6 0.00 0.00 0.00 97 1022.0
20260507070254 -3 151 1.6 1.6 0.00 0.00 0.00 97 1021.9
20260507065751 -3 160 1.6 1.6 0.00 0.00 0.00 97 1022.0
20260507065247 -3 147 1.6 1.6 0.00 0.00 0.00 97 1022.1
20260507064745 -3 155 0.0 1.6 0.00 0.00 0.00 97 1021.7
20260507064244 -3 156 0.0 0.0 0.00 0.00 0.00 97 1022.0
20260507063741 -3 155 1.6 1.6 0.00 0.00 0.00 97 1022.1
20260507063237 -3 111 1.6 1.6 0.00 0.00 0.00 97 1021.9
20260507062734 -3 101 1.6 1.6 0.00 0.00 0.00 97 1021.7
20260507062232 -3 104 1.6 1.6 0.00 0.00 0.00 97 1021.5
20260507061730 -3 102 0.0 1.6 0.00 0.00 0.00 97 1021.9
20260507061227 -3 139 1.6 1.6 0.00 0.00 0.00 97 1021.7
20260507060725 -2 67 0.0 0.0 0.00 0.00 0.00 97 1021.9
20260507060222 -2 25 0.0 0.0 0.00 0.00 0.00 97 1021.6
20260507055718 -2 23 0.0 0.0 0.00 0.61 0.61 97 1021.7
20260507055213 -2 22 0.0 0.0 0.00 0.61 0.61 97 1021.5
20260507054709 -2 22 0.0 1.6 0.00 0.61 0.61 96 1021.6
20260507054207 -2 21 0.0 0.0 0.00 0.61 0.61 97 1021.7
20260507053704 -2 17 0.0 0.0 0.00 0.61 0.61 96 1021.9
20260507053202 -2 17 0.0 0.0 0.00 0.61 0.61 96 1021.5
20260507052701 -2 19 0.0 0.0 0.00 0.61 0.61 96 1021.7
20260507052155 -2 20 0.0 0.0 0.00 0.61 0.61 96 1021.7
20260507051653 -2 21 0.0 0.0 0.00 0.61 0.61 96 1021.6
20260507051149 -2 14 0.0 0.0 0.00 0.61 0.61 96 1021.4
20260507050647 -1 328 0.0 0.0 0.00 0.61 0.61 96 1021.6
20260507050144 -1 334 0.0 0.0 0.00 0.61 0.61 96 1021.4
20260507045641 -1 337 0.0 0.0 0.00 0.61 0.61 96 1021.5
20260507045137 -1 13 1.6 1.6 0.00 0.61 0.61 96 1021.9
20260507044634 -2 319 0.0 0.0 0.00 0.61 0.61 96 1021.6
20260507044131 -2 1 1.6 3.2 0.00 0.61 0.61 96 1021.4
20260507043627 -2 310 0.0 0.0 0.00 0.61 0.61 96 1021.6
20260507043124 -2 341 0.0 0.0 0.00 0.61 0.61 96 1021.4
20260507042620 -2 342 0.0 1.6 0.00 0.61 0.61 96 1021.4
20260507042116 -2 20 0.0 0.0 0.00 0.61 0.61 95 1021.6
20260507041613 -2 355 0.0 0.0 0.00 0.61 0.61 95 1021.6
20260507041110 -2 357 0.0 0.0 0.00 0.61 0.61 95 1021.6
20260507040607 -2 357 0.0 0.0 0.00 0.61 0.61 95 1021.9
20260507035559 -2 354 0.0 0.0 0.00 0.61 0.61 95 1021.5
20260507035055 -2 318 0.0 0.0 0.00 0.61 0.61 95 1021.5
20260507034552 -2 356 0.0 0.0 0.00 0.61 0.61 95 1021.6
20260507034050 -2 16 0.0 0.0 0.00 0.61 0.61 94 1021.7
20260507033548 -2 16 0.0 1.6 0.00 0.61 0.61 94 1021.6
20260507033045 -2 9 0.0 0.0 0.00 0.61 0.61 94 1021.4
20260507032542 -1 19 0.0 0.0 0.00 0.61 0.61 94 1021.5
20260507032038 -1 26 0.0 1.6 0.00 0.61 0.61 94 1021.2
20260507031534 -1 352 0.0 0.0 0.00 0.61 0.61 94 1021.0
20260507031032 -1 22 1.6 1.6 0.00 0.61 0.61 94 1021.2
20260507030528 -1 346 0.0 0.0 0.00 0.61 0.61 93 1021.0
20260507030026 -1 345 0.0 0.0 0.00 0.61 0.61 93 1021.2
20260507025523 -1 325 0.0 0.0 0.00 0.61 0.61 93 1021.0
20260507025020 -1 358 0.0 0.0 0.00 0.61 0.61 93 1021.1
20260507024518 -1 352 0.0 0.0 0.00 0.61 0.61 92 1021.2
20260507024014 -1 342 0.0 0.0 0.00 0.61 0.61 92 1020.9
20260507023510 -1 352 0.0 0.0 0.00 0.61 0.61 92 1021.2
20260507023009 -1 359 1.6 1.6 0.00 0.61 0.61 92 1020.9
20260507022505 -1 348 0.0 0.0 0.00 0.61 0.61 92 1020.7
20260507022000 -1 3 0.0 0.0 0.00 0.61 0.61 92 1021.2
20260507021456 -1 1 0.0 0.0 0.00 0.61 0.61 92 1021.0
20260507020953 -1 358 0.0 0.0 0.00 0.61 0.61 92 1020.9
20260507020450 -1 14 0.0 0.0 0.00 0.61 0.61 92 1020.6
20260507015947 0 5 0.0 0.0 0.00 0.61 0.61 92 1020.9
20260507015446 0 3 0.0 0.0 0.00 0.61 0.61 92 1020.7
20260507014942 0 2 0.0 0.0 0.00 0.61 0.61 92 1021.0
20260507014439 0 349 0.0 0.0 0.00 0.61 0.61 92 1020.9
20260507013935 0 8 0.0 0.0 0.00 0.61 0.61 91 1020.7
20260507013432 0 355 0.0 0.0 0.00 0.61 0.61 91 1020.6
20260507012929 0 336 1.6 3.2 0.00 0.61 0.61 91 1020.9
20260507012426 0 286 1.6 1.6 0.00 0.61 0.61 92 1020.6
20260507011923 0 259 1.6 3.2 0.00 0.61 0.61 92 1020.6
20260507011420 0 344 0.0 1.6 0.00 0.61 0.61 92 1020.6
20260507010920 0 327 1.6 1.6 0.00 0.61 0.61 92 1020.9
20260507010415 0 354 0.0 0.0 0.00 0.61 0.61 92 1020.7
20260507005913 0 325 1.6 1.6 0.00 0.61 0.61 92 1020.7
20260507005409 0 167 4.8 4.8 0.00 0.61 0.61 92 1020.6
20260507004906 0 352 0.0 0.0 0.00 0.61 0.61 92 1020.6
20260507004403 0 3 1.6 1.6 0.00 0.61 0.61 92 1020.5
20260507003900 0 348 0.0 0.0 0.00 0.61 0.61 92 1020.2
20260507003355 0 10 0.0 0.0 0.00 0.61 0.61 92 1020.5
20260507002851 0 8 0.0 0.0 0.00 0.61 0.61 91 1020.2
20260507002347 0 339 1.6 1.6 0.00 0.61 0.61 90 1020.6
20260507001844 0 323 0.0 0.0 0.00 0.61 0.61 90 1020.5
20260507001341 0 359 0.0 1.6 0.00 0.61 0.61 90 1020.6
20260507000838 0 28 0.0 0.0 0.00 0.61 0.61 90 1020.5
20260507000335 0 10 1.6 3.2 0.18 0.61 0.61 90 1020.6